Eugene, OR

1:02 AM PDT on June 18, 2018 (GMT -0700)
Mahlon Sweet

Weather History for KEUG - December, 2013

Change the Weather History Date:

Wednesday, December 25, 2013

  Actual Average Record
Temperature  
Mean Temperature 35 °F 39 °F  
Max Temperature 37 °F 45 °F 62 °F (1980)
Min Temperature 33 °F 33 °F -1 °F (1924)
Degree Days  
Heating Degree Days 30 26  
Month to date heating degree days 809 631  
Since 1 July heating degree days 1985 1804  
Cooling Degree Days 0 0  
Month to date cooling degree days 0 0  
Year to date cooling degree days 411 239  
Moisture  
Dew Point 34 °F    
Average Humidity 96    
Maximum Humidity 100    
Minimum Humidity 92    
Precipitation  
Precipitation 0.00 in 0.23 in 2.59 in (1955)
Month to date precipitation 1.48 6.48  
Year to date precipitation 21.19 44.75  
Sea Level Pressure  
Sea Level Pressure 30.45 in    
Wind  
Wind Speed 5 mph (NNE)    
Max Wind Speed 10 mph    
Max Gust Speed 12 mph    
Visibility 1 miles    
Events Fog    
T = Trace of Precipitation, MM = Missing Value Source: NWS Daily Summary

Daily Weather History Graph

Daily Weather History Graph

Search for Another Location

Airport or City:

Astronomy

Dec. 25, 2013 Rise Set
Actual Time 7:46 AM PST 4:39 PM PST
Civil Twilight 7:13 AM PST 5:12 PM PST
Nautical Twilight 6:36 AM PST 5:49 PM PST
Astronomical Twilight 6:01 AM PST 6:24 PM PST
Moon 12:08 AM PST (12/25) 11:57 AM PST (12/25)
Length of Visible Light 9h 59m
Length of Day
8h 53m
Waning Gibbous, 47% of the Moon is Illuminated
Dec 25
Waning Gibbous
Jan 1
New
Jan 7
First Quarter
Jan 15
Full
Jan 23
Last Quarter

Hourly Weather History & Observations

Time (PST) Temp. Windchill Dew Point Humidity Pressure Visibility Wind Dir Wind Speed Gust Speed Precip Events Conditions
12:06 AM 37.0 °F 31.0 °F 36.0 °F 96% 30.48 in 7.0 mi North 8.1 mph - N/A   Overcast
12:54 AM 36.0 °F 30.3 °F 35.1 °F 97% 30.49 in 4.0 mi NNE 6.9 mph - N/A   Overcast
1:10 AM 36.0 °F 32.1 °F 35.1 °F 97% 30.47 in 1.8 mi NE 4.6 mph - N/A   Overcast
1:27 AM 36.0 °F 32.1 °F 36.0 °F 100% 30.48 in 1.0 mi NNE 4.6 mph - N/A   Overcast
1:54 AM 36.0 °F 32.1 °F 36.0 °F 100% 30.48 in 1.0 mi NNE 4.6 mph - N/A   Mist
2:12 AM 36.0 °F 32.1 °F 35.1 °F 97% 30.47 in 1.5 mi NE 4.6 mph - N/A   Overcast
2:20 AM 36.0 °F - 36.0 °F 100% 30.47 in 1.0 mi Calm Calm - N/A   Mist
2:29 AM 36.0 °F 29.6 °F 35.1 °F 97% 30.47 in 0.8 mi NE 8.1 mph - N/A   Mist
2:54 AM 36.0 °F 31.1 °F 35.1 °F 97% 30.49 in 0.8 mi NE 5.8 mph - N/A   Mist
3:32 AM 35.1 °F 31.0 °F 35.1 °F 100% 30.47 in 1.0 mi NE 4.6 mph - N/A   Mist
3:54 AM 35.1 °F 28.6 °F 34.0 °F 96% 30.48 in 1.0 mi North 8.1 mph - N/A   Mist
4:19 AM 35.1 °F 28.6 °F 34.0 °F 96% 30.47 in 1.5 mi North 8.1 mph - N/A   Overcast
4:42 AM 34.0 °F 31.0 °F 33.1 °F 96% 30.47 in 1.2 mi NNE 3.5 mph - N/A   Overcast
4:54 AM 34.0 °F 28.8 °F 34.0 °F 100% 30.48 in 1.0 mi North 5.8 mph - N/A   Mist
5:01 AM 34.0 °F 28.8 °F 34.0 °F 100% 30.46 in 0.8 mi Variable 5.8 mph - N/A   Mist
5:12 AM 34.0 °F 31.0 °F 34.0 °F 100% 30.46 in 1.5 mi ENE 3.5 mph - N/A   Overcast
5:32 AM 34.0 °F 31.0 °F 33.1 °F 96% 30.47 in 3.0 mi NNE 3.5 mph - N/A   Overcast
5:47 AM 34.0 °F 28.8 °F 33.1 °F 96% 30.47 in 2.5 mi North 5.8 mph - N/A   Overcast
5:54 AM 34.0 °F 28.0 °F 33.1 °F 96% 30.49 in 1.5 mi NNE 6.9 mph - N/A   Overcast
6:13 AM 34.0 °F 28.8 °F 33.1 °F 96% 30.47 in 2.5 mi North 5.8 mph - N/A   Overcast
6:26 AM 34.0 °F 29.8 °F 33.1 °F 96% 30.47 in 4.0 mi NNE 4.6 mph - N/A   Overcast
6:39 AM 34.0 °F 27.2 °F 33.1 °F 96% 30.48 in 2.5 mi North 8.1 mph - N/A   Overcast
6:44 AM 34.0 °F 28.0 °F 33.1 °F 96% 30.48 in 1.2 mi North 6.9 mph - N/A   Overcast
6:54 AM 33.1 °F 26.1 °F 33.1 °F 100% 30.49 in 0.8 mi NNW 8.1 mph - N/A   Mist
7:54 AM 33.1 °F - 33.1 °F 100% 30.48 in 0.5 mi Calm Calm - N/A Fog Fog
8:54 AM 34.0 °F 31.0 °F 33.1 °F 96% 30.48 in 0.2 mi North 3.5 mph - N/A Fog Fog
9:54 AM 34.0 °F 26.6 °F 33.1 °F 96% 30.49 in 0.2 mi NNW 9.2 mph - N/A Fog Fog
10:54 AM 34.0 °F 29.8 °F 33.1 °F 96% 30.48 in 0.2 mi North 4.6 mph - N/A Fog Fog
11:37 AM 34.0 °F 29.8 °F 33.1 °F 96% 30.46 in 0.8 mi NNE 4.6 mph - N/A   Overcast
11:54 AM 34.0 °F 29.8 °F 33.1 °F 96% 30.47 in 0.8 mi North 4.6 mph - N/A   Overcast
12:04 PM 34.0 °F 29.8 °F 33.1 °F 96% 30.44 in 1.5 mi NNE 4.6 mph - N/A   Overcast
12:54 PM 34.0 °F 28.8 °F 33.1 °F 96% 30.44 in 2.5 mi NNE 5.8 mph - N/A   Overcast
1:42 PM 35.1 °F - 34.0 °F 96% 30.41 in 0.8 mi Calm Calm - N/A   Overcast
1:54 PM 35.1 °F 32.2 °F 34.0 °F 96% 30.42 in 0.5 mi North 3.5 mph - N/A   Overcast
2:54 PM 35.1 °F 31.0 °F 34.0 °F 96% 30.41 in 0.5 mi NNE 4.6 mph - N/A   Overcast
3:06 PM 35.1 °F 30.1 °F 34.0 °F 96% 30.40 in 1.0 mi North 5.8 mph - N/A   Overcast
3:54 PM 35.1 °F 29.3 °F 34.0 °F 96% 30.43 in 1.0 mi North 6.9 mph - N/A   Overcast
4:07 PM 35.1 °F 30.1 °F 34.0 °F 96% 30.42 in 0.5 mi North 5.8 mph - N/A   Overcast
4:54 PM 35.1 °F 28.6 °F 34.0 °F 96% 30.43 in 0.2 mi North 8.1 mph - N/A Fog Fog
5:30 PM 35.1 °F 32.2 °F 34.0 °F 96% 30.41 in 0.2 mi NNE 3.5 mph - N/A Fog Fog
5:54 PM 34.0 °F 31.0 °F 34.0 °F 100% 30.43 in 0.2 mi NNW 3.5 mph - N/A Fog Fog
6:28 PM 35.1 °F 32.2 °F 34.0 °F 96% 30.41 in 0.2 mi East 3.5 mph - N/A Fog Fog
6:54 PM 34.0 °F - 34.0 °F 100% 30.43 in 0.2 mi Calm Calm - N/A Fog Fog
7:24 PM 34.0 °F 28.8 °F 34.0 °F 100% 30.42 in 0.2 mi North 5.8 mph - N/A Fog Fog
7:54 PM 34.0 °F - 34.0 °F 100% 30.43 in 0.2 mi Calm Calm - N/A Fog Fog
8:54 PM 34.0 °F 31.0 °F 33.1 °F 96% 30.42 in 0.2 mi North 3.5 mph - N/A Fog Fog
9:40 PM 34.0 °F - 33.1 °F 96% 30.41 in 0.5 mi Calm Calm - N/A Fog Fog
9:54 PM 34.0 °F - 33.1 °F 96% 30.43 in 0.5 mi Calm Calm - N/A Fog Fog
10:00 PM 34.0 °F - 33.1 °F 96% 30.41 in 0.2 mi Calm Calm - N/A Fog Fog
10:54 PM 34.0 °F 29.8 °F 33.1 °F 96% 30.42 in 0.2 mi NNW 4.6 mph - N/A Fog Fog
11:37 PM 33.1 °F 28.7 °F 33.1 °F 100% 30.41 in 1.0 mi North 4.6 mph - N/A   Mist
11:54 PM 33.1 °F 30.0 °F 33.1 °F 100% 30.43 in 0.8 mi North 3.5 mph - N/A   Mist